Regional Weather Roundup
Issued by NWS

Home | Current Version | Previous Version | Graphics & Text | Print | Product List | Glossary On
Versions: 1 2 3 4 5 6 7 8 9 10 11 12 13 14 15 16 17 18 19 20 21 22 23 24 25 26 27 28 29 30 31 32 33 34 35 36 37 38 39 40 41 42 43 44 45 46 47 48 49 50
000
ASUS44 KMEG 280900
RWRTN
TENNESSEE HOURLY STATE WEATHER ROUNDUP
NATIONAL WEATHER SERVICE MEMPHIS TN
300 AM CST WED JAN 28 2015

TNZ002-004-019-021-049-052-054-088>092-281000-
WEST TENNESSEE

CITY           SKY/WX    TMP DP  RH WIND       PRES   REMARKS
MEMPHIS INTL   CLEAR     39  30  70 E10       30.23S WCI  32
NWS MEMPHIS      N/A     32 N/A N/A MISG        N/A
JACKSON        CLEAR     28  25  88 CALM      30.26R
DYERSBURG      CLEAR     30  18  59 CALM      30.27S
UNION CITY     CLEAR     27  27 100 E3        30.24F
PARIS          CLEAR     27  23  86 NE5       30.25R WCI  21
LEXINGTON      CLEAR     28  25  86 CALM      30.24R
SAVANNAH         N/A     25  25 100 CALM      30.26R
$$

TNZ008-025-027-028-033-062-065-066-281000-
NORTH MIDDLE TENNESSEE

CITY           SKY/WX    TMP DP  RH WIND       PRES   REMARKS
NASHVILLE      CLOUDY    33  28  81 NE7       30.26R WCI  27
CLARKSVILLE    CLOUDY    32  29  88 NE5       30.27R WCI  27
COOKEVILLE     CLOUDY    30  25  80 VRB7      30.21R WCI  23
CROSSVILLE     CLOUDY    28  20  71 N8        30.18R WCI  20
$$

TNZ061-075-076-078-094-096-097-281000-
SOUTH MIDDLE TENNESSEE

CITY           SKY/WX    TMP DP  RH WIND       PRES   REMARKS
TULLAHOMA      CLOUDY    30  23  74 N8        30.21S WCI  23
WINCHESTER     CLOUDY    32  25  74 N9        30.21S WCI  24
SHELBYVILLE    CLOUDY    34  28  80 NE7       30.24R WCI  28
$$

TNZ017-018-042-046-047-281000-
NORTHEAST TENNESSEE

CITY           SKY/WX    TMP DP  RH WIND       PRES   REMARKS
TRI CITIES     PTCLDY    21  10  62 CALM      30.19R
ELIZABETHTON   SUNNY     16  10  79 CALM      30.17R
$$

TNZ012-013-036-069-073-074-281000-
CENTRAL EAST TENNESSEE

CITY           SKY/WX    TMP DP  RH WIND       PRES   REMARKS
KNOXVILLE      CLEAR     28  20  71 NE3       30.21R
OAK RIDGE      CLEAR     30  20  66 VRB3      30.23R
GATLINBURG     SUNNY     21  19  93 CALM      30.22R
$$

TNZ083-085-099-281000-
SOUTHEAST TENNESSEE

CITY           SKY/WX    TMP DP  RH WIND       PRES   REMARKS
CHATTANOOGA    CLOUDY    36  25  64 N13       30.21R WCI  27
$$

SKY/WX REPORTED AS FAIR MEANS FEW OR NO CLOUDS BELOW
12 THOUSAND FEET.



USA.gov is the U.S. government's official web portal to all federal, state and local government web resources and services.